Stony Rapids Airport
CYSF : now visible

Airfield :











YOU CAN JOIN US ON...

 
LOGIN :

Register | Disclaimer

   EN    FR    IT 

 









Legend :    VFR   Marginal VFR   IFR   Intensive IFR   Very Intensive IFR
Visi :
Ceiling :
>= 8 km
>= 3000ft
5 to 8 km
1000 to 3000 ft
1500m to 5 km
500 to 1000 ft
800 to 1500m
200 to 500 ft
< 800m
< 200 ft
Symbols :   Thunderstorms  Fog  Heavy snow  Heavy precipitations  Wind > 20 kt






- Airport Elevation : 805 ft
- IATA code : YSF


CYSF - Stony Rapids

CURRENT METAR :
  • 231600Z AUTO 09006KT 9SM BKN220 11/M04 A3009 RMK SLP201

EXPIRED METARs :
  • 231500Z AUTO 08006KT 9SM CLR 10/M02 A3010 RMK SLP205
  • 231400Z AUTO 09006KT 070V130 9SM CLR 07/M02 A3011 RMK SLP207
  • 231300Z AUTO 10004KT 9SM CLR 05/M01 A3010 RMK SLP207
  • 231200Z AUTO 12002KT 9SM FEW220 02/M02 A3010 RMK SLP207

TAF TAF CYSF
Valid from the 23 at 12:00 until the 24 at 00:00 UTC


231141Z 2312/2324 VRB03KT P6SM BKN200
BECMG 2313/2315 10008KT RMK FCST BASED ON AUTO OBS. NXT FCST BY 231800Z
CZEG FIR / North America



MET'MAP, your aeronautical weather chart ! - Copyright ORBIFLY December 2007 - Disclaimer

ORBIFLY MET'MAP TEAM :

Programming & Development : Alexandra Zaïnal
Original concept : Baudouin d'Aumeries
Technical & hardware support : Manuel Goepfert
Assistance : Marc-Olivier Méhu




SOURCES & CREDITS :

   NOAA       Earth
Advisory